Location: Eschertshofen
(49.3064°N, 11.5756°E)
Time: 12:52:33
(UTC+00:00)

Cosmos 1844 Rocket - Pass Details

Date: 18 September 2020
Orbit: 823 x 846 km, 71.0° (Epoch: 23 October)

Event Time Altitude Azimuth Distance (km) Brightness Sun altitude
Rises 17:57:42 0° 154° (SSE) 3,347 5.5 -7.0°
Reaches altitude 10° 18:01:05 10° 133° (SE) 2,422 4.6 -7.5°
Maximum altitude 18:04:14 16° 98° (E) 2,061 4.1 -8.0°
Drops below altitude 10° 18:07:23 10° 63° (ENE) 2,437 4.6 -8.5°
Sets 18:10:48 0° 42° (NE) 3,381 5.5 -9.1°
